Location: Domont
(49.0278°N, 2.3264°E)
Time: 02:37:08
(UTC+00:00)

ISS - Visible Passes

Search period start: 19 January 2022 00:00
Search period end: 29 January 2022 00:00
Orbit: 413 x 423 km, 51.6° (Epoch: 18 January)

Date Brightness Start Highest point End Pass type
(mag) Time Alt. Az. Time Alt. Az. Time Alt. Az.
19 Jan -2.3 18:01:39 10° SSW 18:04:18 22° SE 18:04:40 22° SE visible
19 Jan -0.4 19:37:25 10° WSW 19:37:37 11° WSW 19:37:37 11° WSW visible
20 Jan -1.6 17:14:33 10° S 17:16:32 15° SE 17:18:30 10° E visible
20 Jan -2.6 18:49:30 10° WSW 18:51:48 40° SW 18:51:48 40° SW visible
21 Jan -3.3 18:01:41 10° SW 18:04:54 47° SSE 18:05:55 34° E visible
21 Jan -0.5 19:38:20 10° W 19:38:51 14° W 19:38:51 14° W visible
22 Jan -2.6 17:14:00 10° SSW 17:17:00 32° SE 17:19:58 10° E visible
22 Jan -2.9 18:50:17 10° W 18:52:54 50° W 18:52:54 50° W visible
23 Jan -3.9 18:02:16 10° WSW 18:05:36 90° SW 18:06:55 34° ENE visible
23 Jan -0.5 19:39:17 10° WNW 19:39:51 14° WNW 19:39:51 14° WNW visible
24 Jan -3.6 17:14:18 10° WSW 17:17:37 66° SSE 17:20:53 10° ENE visible
24 Jan -2.8 18:51:12 10° W 18:53:49 44° NW 18:53:49 44° NW visible
25 Jan -3.5 18:03:05 10° W 18:06:24 60° N 18:07:45 31° ENE visible
25 Jan -0.6 19:40:07 10° WNW 19:40:41 14° WNW 19:40:41 14° WNW visible
26 Jan -3.7 17:14:58 10° W 17:18:19 72° NNW 17:21:40 10° ENE visible
26 Jan -2.8 18:52:02 10° WNW 18:54:37 43° NW 18:54:37 43° NW visible
27 Jan -3.4 18:03:56 10° W 18:07:12 51° N 18:08:33 30° ENE visible
27 Jan -0.6 19:40:49 10° WNW 19:41:29 15° WNW 19:41:29 15° WNW visible
28 Jan -3.4 17:15:47 10° W 17:19:04 54° N 17:22:22 10° ENE visible
28 Jan -3.1 18:52:46 10° WNW 18:55:26 51° NW 18:55:26 51° NW visible
